Location: Herm
(49.4830°N, 2.4500°W)
Time: 20:29:12
(UTC+00:00)

VELOX 1 - Pass Details

Date: 28 October 2021
Orbit: 627 x 641 km, 98.3° (Epoch: 03 December)

Event Time Altitude Azimuth Distance (km) Brightness Sun altitude
Rises 19:19:52 0° 1° (N) 2,954 ? -14.4°
Reaches altitude 10° 19:22:42 10° 342° (NNW) 2,042 ? -14.8°
Maximum altitude 19:25:34 17° 302° (WNW) 1,611 ? -15.3°
Drops below altitude 10° 19:28:27 10° 261° (W) 2,037 ? -15.8°
Sets 19:31:17 0° 242° (WSW) 2,943 ? -16.2°
